Weather reports worldwide

Advertisment
Feldberg/Mecklenburg, Germany (10282): temperature & dewpoint: 29.05.2020 18:00:00 - 04.06.2020 18:00:00 (CEST)Feldberg/Mecklenburg, Germany (10282): temperature 5cm & temperature -5cm: 29.05.2020 18:00:00 - 04.06.2020 18:00:00 (CEST)Feldberg/Mecklenburg, Germany (10282): temperature -20cm & temperature -100cm: 29.05.2020 18:00:00 - 04.06.2020 18:00:00 (CEST)Feldberg/Mecklenburg, Germany (10282): wind speed & gusts: 29.05.2020 18:00:00 - 04.06.2020 18:00:00 (CEST)Feldberg/Mecklenburg, Germany (10282): wind direction: 29.05.2020 18:00:00 - 04.06.2020 18:00:00 (CEST)Feldberg/Mecklenburg, Germany (10282): reduced air pressure: 29.05.2020 18:00:00 - 04.06.2020 18:00:00 (CEST)Feldberg/Mecklenburg, Germany (10282): visibility: 29.05.2020 18:00:00 - 04.06.2020 18:00:00 (CEST)Feldberg/Mecklenburg, Germany (10282): sunshine duration: 29.05.2020 18:00:00 - 04.06.2020 18:00:00 (CEST)Feldberg/Mecklenburg, Germany (10282): precipitation: 29.05.2020 18:00:00 - 04.06.2020 18:00:00 (CEST)
Date & Time tt [°C] td [°C] tt 5cm [°C] tt -5cm [°C] tt -20cm [°C] tt -100cm [°C] ff [km/h] ff [kn] fx [km/h] fx [kn] dd ppp [hPa] vv [km] sd [min] rr [mm]
04.06.2020 18:00:00 21,4 5,4 21,3 25,0 21,6 14,4 13 7 36 20 SE 992,2 69 0 0,0
04.06.2020 17:00:00 22,2 4,8 23,7 26,4 21,2 14,4 24 13 42 23 ESE 992,5 64 22 0,0
04.06.2020 16:00:00 23,9 5,3 28,2 25,7 20,9 14,4 22 12 38 21 ESE 993,2 56 26 0,0
04.06.2020 15:00:00 21,8 5,2 23,7 25,0 20,6 14,4 18 10 34 18 ESE 994,2 69 0 0,0
04.06.2020 14:00:00 21,6 6,0 24,1 25,2 20,1 14,4 18 10 39 21 SE 994,9 51 4 0,0
04.06.2020 13:00:00 20,9 5,8 23,2 25,0 19,6 14,4 15 8 37 20 SE 995,5 62 10 0,0
04.06.2020 12:00:00 22,1 5,6 27,2 24,1 19,0 14,4 21 12 40 21 ESE 995,9 55 32 0,0
04.06.2020 11:00:00 20,2 6,2 24,1 22,3 18,6 14,3 13 7 23 13 SE 996,5 56 28 0,0
04.06.2020 10:00:00 17,9 7,8 21,3 20,4 18,4 14,3 13 7 23 12 ESE 997,0 63 40 0,0
04.06.2020 09:00:00 15,8 7,3 17,8 18,5 18,3 14,3 11 6 19 10 ESE 997,6 55 24 0,0
04.06.2020 08:00:00 13,4 6,9 14,7 17,1 18,5 14,3 11 6 22 12 SE 998,1 75 21 0,0
04.06.2020 07:00:00 11,9 7,2 12,4 16,2 18,8 14,3 8 4 14 7 ESE 998,4 49 0 0,0
04.06.2020 06:00:00 10,6 7,0 10,3 16,0 19,3 14,2 7 4 15 8 E 999,1 65 9 0,0
04.06.2020 05:00:00 9,9 6,7 8,6 16,2 19,8 14,2 6 4 10 6 ENE 999,5 56 0 0,0
04.06.2020 04:00:00 10,0 6,5 7,8 16,9 20,3 14,2 6 3 13 7 ENE 1000,0 54 0 0,0
04.06.2020 03:00:00 10,7 6,7 8,8 17,6 20,9 14,2 8 4 10 6 ENE 1000,7 49 0 0,0
04.06.2020 02:00:00 9,1 6,5 7,2 18,5 21,5 14,2 4 2 10 5 NNE 1001,4 51 0 0,0
04.06.2020 01:00:00 11,5 7,1 8,9 19,5 22,1 14,1 6 3 15 8 ENE 1001,9 58 0 0,0
04.06.2020 00:00:00 12,3 7,8 10,7 20,7 22,7 14,1 7 4 11 6 ENE 1002,6 58 0 0,0
03.06.2020 23:00:00 13,2 8,6 12,2 22,1 23,3 14,1 6 3 17 9 NE 1002,9 63 0 0,0
03.06.2020 22:00:00 14,5 8,3 13,8 23,7 23,8 14,1 10 5 21 12 NE 1003,5 61 0 0,0
03.06.2020 21:00:00 15,9 8,3 15,8 25,6 24,2 14,1 11 6 22 12 NNE 1003,6 65 5 0,0
03.06.2020 20:00:00 17,9 8,5 18,4 27,7 24,3 14,1 14 7 27 14 NE 1003,4 64 26 0,0
03.06.2020 19:00:00 21,0 7,3 25,7 30,1 24,2 14,1 18 10 28 15 NNE 1003,3 53 60 0,0
03.06.2020 18:00:00 22,3 3,7 28,6 31,3 23,8 14,1 11 6 23 12 NE 1003,4 56 60 0,0
03.06.2020 17:00:00 22,3 4,6 27,7 31,8 23,2 14,0 11 6 23 12 E 1003,8 48 60 0,0
03.06.2020 16:00:00 21,7 4,5 29,8 31,8 22,4 14,0 13 7 28 15 E 1004,8 75 60 0,0
03.06.2020 15:00:00 21,5 4,4 27,7 31,1 21,6 14,0 13 7 23 13 E 1005,6 53 60 0,0
03.06.2020 14:00:00 21,3 4,2 30,6 29,9 20,7 14,0 9 5 21 11 E 1006,2 58 60 0,0
03.06.2020 13:00:00 20,7 3,6 28,0 28,3 19,8 14,0 13 7 27 15 E 1006,7 75 60 0,0
03.06.2020 12:00:00 19,1 2,9 26,2 27,1 18,9 14,0 10 6 20 11 E 1007,5 69 60 0,0
03.06.2020 11:00:00 18,5 2,1 25,0 24,3 18,3 13,9 9 5 18 10 ENE 1008,0 72 60 0,0
03.06.2020 10:00:00 16,7 2,4 22,9 21,4 17,8 13,9 9 5 16 8 E 1008,5 9 60 0,0
03.06.2020 09:00:00 15,1 5,6 19,2 18,5 17,7 13,9 5 3 10 6 E 1008,7 48 60 0,0
03.06.2020 08:00:00 13,3 6,0 16,0 16,2 17,9 13,9 5 3 12 7 ESE 1009,1 49 60 0,0
03.06.2020 07:00:00 11,9 6,2 12,7 14,7 18,3 13,8 6 4 10 5 E 1009,2 66 43 0,0
03.06.2020 06:00:00 9,9 6,3 8,3 14,7 18,8 13,8 5 3 11 6 NE 1009,5 63 19 0,0
03.06.2020 05:00:00 8,1 5,9 6,0 15,3 19,4 13,8 5 3 11 6 ENE 1009,8 60 0 0,0
03.06.2020 04:00:00 7,6 6,3 6,1 16,2 20,0 13,8 6 3 12 6 NE 1010,2 47 0 0,0
03.06.2020 03:00:00 10,7 8,4 8,5 17,1 20,6 13,8 6 4 12 6 NE 1010,6 56 0 0,0
03.06.2020 02:00:00 12,0 9,4 10,4 18,1 21,3 13,7 9 5 14 8 ENE 1011,2 63 0 0,0
03.06.2020 01:00:00 11,7 9,4 8,7 19,1 21,9 13,7 5 3 12 6 ENE 1011,6 64 0 0,0
03.06.2020 00:00:00 10,2 7,8 9,2 20,5 22,6 13,7 7 4 9 5 NNW 1012,1 65 0 0,0
02.06.2020 23:00:00 12,3 8,2 11,0 22,1 23,2 13,7 6 4 14 8 N 1012,3 62 0 0,0
02.06.2020 22:00:00 18,0 8,4 15,7 24,1 23,8 13,7 10 6 16 9 N 1012,3 73 1 0,0
02.06.2020 21:00:00 19,7 8,6 18,9 26,5 24,1 13,7 11 6 32 17 N 1012,4 66 60 0,0
02.06.2020 20:00:00 22,5 8,2 24,3 28,8 24,2 13,7 22 12 35 19 N 1012,5 75 60 0,0
02.06.2020 19:00:00 23,8 7,6 27,1 30,7 24,0 13,7 21 11 33 18 N 1012,8 58 60 0,0
02.06.2020 18:00:00 25,0 7,3 29,7 31,9 23,6 13,7 20 11 34 18 N 1013,1 75 60 0,0
02.06.2020 17:00:00 24,7 7,3 29,9 32,8 22,9 13,6 23 12 39 21 N 1013,8 58 60 0,0
02.06.2020 16:00:00 25,8 8,4 31,2 32,9 22,0 13,6 18 10 34 18 NW 1014,5 59 60 0,0
02.06.2020 15:00:00 25,9 7,7 32,3 32,4 21,0 13,6 20 11 35 19 N 1015,2 42 60 0,0
02.06.2020 14:00:00 24,6 8,1 31,2 31,2 20,0 13,6 16 9 35 19 NW 1016,2 53 60 0,0
02.06.2020 13:00:00 23,9 8,2 30,7 29,4 18,9 13,6 16 9 31 17 NNW 1017,1 61 60 0,0
02.06.2020 12:00:00 23,1 8,4 29,3 26,9 18,0 13,6 15 8 28 15 NNW 1017,8 52 60 0,0
02.06.2020 11:00:00 21,8 8,6 27,7 24,1 17,2 13,6 16 9 24 13 NNW 1018,4 53 60 0,0
02.06.2020 10:00:00 20,1 7,3 25,4 21,1 16,6 13,5 15 8 24 13 NNW 1019,2 63 60 0,0
02.06.2020 09:00:00 17,9 8,1 21,9 18,0 16,4 13,5 12 7 21 11 NNW 1019,8 75 60 0,0
02.06.2020 08:00:00 15,3 7,9 18,1 15,4 16,5 13,5 11 6 19 11 NNW 1020,1 55 60 0,0
02.06.2020 07:00:00 12,9 6,3 14,0 13,7 16,8 13,5 9 5 17 9 NW 1020,8 68 60 0,0
02.06.2020 06:00:00 10,9 6,3 9,7 13,3 17,2 13,5 9 5 17 9 NW 1021,4 57 18 0,0
02.06.2020 05:00:00 10,3 6,7 8,9 13,5 17,7 13,4 12 7 16 9 NW 1021,5 63 0 0,0
02.06.2020 04:00:00 10,3 6,3 8,7 13,9 18,3 13,4 13 7 18 10 NW 1021,8 69 0 0,0
02.06.2020 03:00:00 7,0 5,1 5,3 14,6 18,9 13,4 5 3 11 6 NW 1022,3 65 0 0,0
02.06.2020 02:00:00 7,2 5,4 4,7 15,6 19,6 13,4 5 3 6 4 WNW 1022,9 75 0 0,0
02.06.2020 01:00:00 7,3 5,5 5,4 16,6 20,3 13,4 3 2 8 5 N 1023,4 71 0 0,0
02.06.2020 00:00:00 8,2 5,2 7,0 17,9 21,0 13,4 7 4 12 7 N 1023,8 66 0 0,0
01.06.2020 23:00:00 9,0 5,0 7,6 19,6 21,7 13,4 9 5 12 7 N 1023,7 75 0 0,0
01.06.2020 22:00:00 10,2 5,3 9,3 21,7 22,2 13,4 8 4 13 7 N 1023,6 65 7 0,0
01.06.2020 21:00:00 16,0 4,7 15,3 24,2 22,6 13,4 8 5 26 14 NE 1023,4 75 60 0,0
01.06.2020 20:00:00 18,1 4,8 20,2 26,5 22,7 13,4 18 10 28 15 NNE 1023,6 75 60 0,0
01.06.2020 19:00:00 19,3 4,7 22,8 28,3 22,5 13,3 18 10 39 21 NE 1023,6 44 60 0,0
01.06.2020 18:00:00 20,0 5,0 24,9 29,7 22,2 13,3 24 13 37 20 NNE 1023,8 61 60 0,0
01.06.2020 17:00:00 20,6 4,9 26,3 30,7 21,6 13,3 22 12 42 23 NE 1024,0 14 60 0,0
01.06.2020 16:00:00 21,1 5,0 27,8 31,2 20,8 13,3 24 13 42 23 NNE 1024,3 41 60 0,0
01.06.2020 15:00:00 21,4 6,8 28,1 30,7 19,8 13,3 20 11 38 20 NNE 1024,4 71 60 0,0
01.06.2020 14:00:00 20,9 5,9 28,9 29,5 18,7 13,3 18 10 34 18 NE 1024,7 75 60 0,0
01.06.2020 13:00:00 20,0 3,6 27,7 27,6 17,7 13,3 22 12 38 20 NNE 1025,0 53 60 0,0
01.06.2020 12:00:00 19,7 5,1 27,3 25,3 16,8 13,3 20 11 33 18 NNE 1025,2 57 60 0,0
01.06.2020 11:00:00 18,7 5,3 24,1 22,6 16,0 13,3 18 10 28 15 NNE 1025,3 58 60 0,0
01.06.2020 10:00:00 17,5 4,4 22,9 19,5 15,4 13,3 13 7 28 15 NE 1025,3 48 60 0,0
01.06.2020 09:00:00 15,8 6,9 20,3 16,4 15,2 13,2 16 9 27 15 NNE 1025,4 64 60 0,0
01.06.2020 08:00:00 13,5 7,9 16,3 13,9 15,3 13,2 19 11 27 15 NNE 1025,3 54 60 0,0
01.06.2020 07:00:00 11,6 8,2 12,6 12,3 15,6 13,2 15 8 23 13 NNE 1024,8 50 60 0,0
01.06.2020 06:00:00 9,7 7,7 8,1 11,8 16,0 13,2 11 6 19 10 NNE 1024,9 46 18 0,0
01.06.2020 05:00:00 8,6 7,1 6,6 12,2 16,5 13,2 8 4 26 14 NNE 1024,7 45 0 0,0
01.06.2020 04:00:00 9,8 7,3 7,9 12,8 17,0 13,2 15 8 28 15 NNE 1024,8 45 0 0,0
01.06.2020 03:00:00 10,2 7,3 8,6 13,4 17,5 13,2 21 11 33 18 NNE 1024,8 56 0 0,0
01.06.2020 02:00:00 10,3 7,4 8,7 14,1 18,1 13,1 21 11 35 19 NNE 1024,7 57 0 0,0
01.06.2020 01:00:00 10,3 7,2 8,6 14,9 18,7 13,1 16 9 36 20 NE 1024,8 53 0 0,0
01.06.2020 00:00:00 10,5 7,0 8,9 15,9 19,4 13,1 20 11 37 20 NNE 1024,4 56 0 0,0
31.05.2020 23:00:00 11,0 6,8 9,7 17,2 20,1 13,1 25 14 40 22 NNE 1024,1 52 0 0,0
31.05.2020 22:00:00 11,4 6,5 10,2 19,0 20,7 13,1 24 13 39 21 N 1024,0 62 7 0,0
31.05.2020 21:00:00 13,1 5,5 12,5 21,5 21,1 13,1 23 13 37 20 NNE 1023,6 71 60 0,0
31.05.2020 20:00:00 14,7 5,4 16,9 23,9 21,3 13,1 21 12 52 28 NNE 1023,2 65 60 0,0
31.05.2020 19:00:00 16,3 5,2 20,0 26,0 21,2 13,1 25 13 49 26 NNE 1023,2 62 60 0,0
31.05.2020 18:00:00 17,5 5,7 21,9 27,6 20,9 13,1 30 16 46 25 NNE 1022,8 47 60 0,0
31.05.2020 17:00:00 17,9 6,7 23,3 28,8 20,3 13,1 31 17 53 28 NNE 1022,7 51 60 0,0
31.05.2020 16:00:00 18,9 7,4 25,3 29,2 19,5 13,1 26 14 43 23 NE 1022,4 47 60 0,0
31.05.2020 15:00:00 19,2 7,6 25,7 28,6 18,6 13,1 26 14 45 24 NNE 1022,2 44 60 0,0
31.05.2020 14:00:00 18,6 7,5 26,0 27,5 17,6 13,1 28 15 44 24 N 1022,2 48 60 0,0
31.05.2020 13:00:00 18,6 6,5 26,0 25,7 16,6 13,1 30 16 50 27 NNE 1022,6 40 60 0,0
31.05.2020 12:00:00 17,4 8,2 24,3 23,2 15,7 13,1 23 12 40 22 NNE 1022,6 49 60 0,0
31.05.2020 11:00:00 16,2 8,2 22,5 20,5 15,1 13,1 25 13 42 23 N 1022,6 73 60 0,0
31.05.2020 10:00:00 15,2 8,1 20,0 17,1 14,7 13,0 27 14 37 20 N 1022,5 60 40 0,0
31.05.2020 09:00:00 12,9 8,2 15,2 14,4 14,7 13,0 25 13 40 22 NNE 1022,7 55 0 0,0
31.05.2020 08:00:00 11,8 7,9 12,8 13,1 14,8 13,0 19 10 29 16 N 1022,5 75 0 0,0
31.05.2020 07:00:00 10,7 7,2 10,8 12,3 15,0 13,0 18 10 27 14 N 1022,4 56 0 0,0
31.05.2020 06:00:00 9,6 6,6 9,1 12,0 15,3 13,0 14 7 22 12 NNW 1022,4 75 0 0,0
31.05.2020 05:00:00 9,1 6,2 8,3 12,0 15,7 13,0 14 8 22 12 NNW 1022,6 65 0 0,0
31.05.2020 04:00:00 8,9 6,5 7,8 12,4 16,2 13,0 11 6 22 12 NNW 1023,0 51 0 0,0
31.05.2020 03:00:00 8,6 6,7 7,7 13,0 16,6 12,9 9 5 14 8 NW 1023,7 56 0 0,0
31.05.2020 02:00:00 8,8 6,7 7,8 13,5 17,1 12,9 10 5 21 12 N 1024,0 57 0 0,0
31.05.2020 01:00:00 9,1 6,7 8,3 14,1 17,7 12,9 13 7 20 11 N 1024,3 56 0 0,0
31.05.2020 00:00:00 9,2 6,5 8,1 14,9 18,3 12,9 12 7 21 11 N 1024,3 58 0 0,0
30.05.2020 23:00:00 10,0 6,5 8,8 16,1 18,9 12,9 16 8 23 13 N 1024,4 68 0 0,0
30.05.2020 22:00:00 10,9 6,0 9,7 17,6 19,5 12,9 16 9 29 16 N 1024,3 59 0 0,0
30.05.2020 21:00:00 11,6 5,3 11,0 19,8 19,9 12,9 18 10 35 19 NNE 1024,0 68 17 0,0
30.05.2020 20:00:00 13,0 4,2 14,8 22,1 20,0 12,9 23 12 39 21 NNE 1023,9 70 50 0,0
30.05.2020 19:00:00 14,3 3,8 18,3 24,3 19,9 12,9 21 12 40 22 NE 1023,8 62 59 0,0
30.05.2020 18:00:00 14,8 3,7 19,4 25,5 19,6 12,9 24 13 45 25 NE 1023,9 48 56 0,0
30.05.2020 17:00:00 15,7 4,8 22,0 25,8 19,1 12,9 26 14 55 30 NNE 1024,0 60 56 0,0
30.05.2020 16:00:00 15,8 4,2 22,3 25,6 18,6 12,9 31 17 48 26 NNE 1024,3 70 55 0,0
30.05.2020 15:00:00 15,4 4,5 21,5 24,1 18,1 12,9 21 12 49 26 NE 1024,8 70 25 0,0
30.05.2020 14:00:00 14,6 3,6 18,2 25,1 17,4 12,9 29 15 51 28 NNE 1025,3 62 41 0,0
30.05.2020 13:00:00 15,9 3,1 23,8 23,3 16,7 12,9 32 18 46 25 NNE 1025,4 51 27 0,0
30.05.2020 12:00:00 16,0 4,4 21,8 22,9 16,0 12,8 25 13 42 23 NE 1025,6 64 45 0,0
30.05.2020 11:00:00 16,6 4,7 22,7 21,3 15,3 12,8 22 12 44 24 NE 1025,6 68 56 0,0
30.05.2020 10:00:00 15,9 5,0 20,9 18,9 14,7 12,8 22 12 36 20 NNE 1025,8 65 60 0,0
30.05.2020 09:00:00 14,5 5,3 19,2 16,3 14,5 12,8 21 11 30 16 NNE 1026,3 67 59 0,0
30.05.2020 08:00:00 12,8 5,6 16,2 13,7 14,5 12,8 17 9 25 13 NNE 1026,6 50 46 0,0
30.05.2020 07:00:00 11,4 7,5 12,9 12,2 14,7 12,8 9 5 13 7 N 1026,7 46 44 0,0
30.05.2020 06:00:00 8,9 7,2 7,3 11,6 15,0 12,8 8 5 12 7 NNW 1027,1 47 0 0,0
30.05.2020 05:00:00 8,9 6,7 8,0 12,0 15,3 12,7 8 4 16 9 N 1027,2 59 0 0,0
30.05.2020 04:00:00 9,6 6,9 8,6 12,2 15,7 12,7 8 4 16 9 NNE 1027,2 71 0 0,0
30.05.2020 03:00:00 9,1 5,2 7,9 12,2 16,2 12,7 9 5 17 9 NNE 1027,4 71 0 0,0
30.05.2020 02:00:00 9,1 4,5 7,2 12,8 16,8 12,7 11 6 15 8 N 1027,4 74 0 0,0
30.05.2020 01:00:00 6,9 4,4 5,2 13,2 17,4 12,7 11 6 14 7 N 1027,4 56 0 0,0
30.05.2020 00:00:00 6,7 4,6 4,6 14,4 18,1 12,7 10 5 13 7 N 1027,6 53 0 0,0
29.05.2020 23:00:00 8,4 5,7 6,3 16,0 18,7 12,7 10 5 17 9 N 1027,5 64 0 0,0
29.05.2020 22:00:00 11,2 6,3 9,4 17,9 19,1 12,7 11 6 24 13 NNE 1027,5 56 4 0,0
29.05.2020 21:00:00 13,7 6,1 13,0 20,0 19,4 12,7 17 9 28 15 NNE 1027,0 54 60 0,0
29.05.2020 20:00:00 15,7 5,2 17,6 22,1 19,5 12,7 17 9 30 16 NE 1026,8 60 60 0,0
29.05.2020 19:00:00 17,4 2,6 20,9 23,2 19,4 12,7 21 11 36 19 NNE 1026,8 70 60 0,0
29.05.2020 18:00:00 18,0 3,8 22,2 22,7 19,4 12,7 21 11 36 20 NNE 1026,8 71 25 0,0

tt = temperature
td = dewpoint
tt 5cm = temperature 5cm
tt -5cm = temperature -5cm
tt -20cm = temperature -20cm
tt -100cm = temperature -100cm
ff = wind speed
fx = gusts
dd = wind direction
ppp = reduced air pressure
vv = visibility
sd = sunshine duration
rr = precipitation

Next stations